Copper Mountain, CO

1:02 AM MST on December 13, 2017 (GMT -0700)
Copper Mountain

Weather History for KCCU - May, 2013

Change the Weather History Date:

Monday, May 13, 2013

  Actual Average Record
Temperature  
Mean Temperature 48 °F -  
Max Temperature 55 °F - 55 °F (2013)
Min Temperature 41 °F - 12 °F (2014)
Degree Days  
Heating Degree Days 17    
Month to date heating degree days  
Cooling Degree Days 0    
Month to date cooling degree days  
Moisture  
Dew Point 26 °F    
Average Humidity 47    
Maximum Humidity 61    
Minimum Humidity 26    
Precipitation  
Precipitation 0.00 in - 0.33 in (2011)
Sea Level Pressure  
Sea Level Pressure 30.63 in    
Wind  
Wind Speed 13 mph (WSW)    
Max Wind Speed 22 mph    
Max Gust Speed 23 mph    
Visibility 10 miles    
Events Rain    
T = Trace of Precipitation, MM = Missing Value Source: NWS Daily Summary

Daily Weather History Graph

Daily Weather History Graph

Search for Another Location

Airport or City:

Trip Planner

Search our weather history database for the weather conditions in past years. The results will help you decide how hot, cold, wet, or windy it might be!

Date:

Astronomy

May. 13, 2013 Rise Set
Actual Time 5:52 AM MDT 8:10 PM MDT
Civil Twilight 5:22 AM MDT 8:40 PM MDT
Nautical Twilight 4:44 AM MDT 9:17 PM MDT
Astronomical Twilight 4:04 AM MDT 9:58 PM MDT
Moon 8:40 AM MDT 11:21 PM MDT
Length of Visible Light 15h 18m
Length of Day
14h 17m
Waxing Crescent, 12% of the Moon is Illuminated
May 13
Waxing Crescent
May 17
First Quarter
May 24
Full
May 31
Last Quarter
Jun 8
New

Hourly Weather History & Observations

Time (MDT) Temp. Windchill Dew Point Humidity Pressure Visibility Wind Dir Wind Speed Gust Speed Precip Events Conditions
12:12 AM 44.6 °F 36.6 °F 26.6 °F 49% 30.62 in 10.0 mi West 19.6 mph - N/A   Clear
12:32 AM 44.6 °F 37.8 °F 24.8 °F 46% 30.62 in 10.0 mi West 15.0 mph 19.6 mph N/A   Clear
12:52 AM 44.6 °F 38.8 °F 24.8 °F 46% 30.62 in 10.0 mi West 11.5 mph - N/A   Clear
1:12 AM 41.0 °F 35.2 °F 24.8 °F 53% 30.62 in 10.0 mi West 9.2 mph 16.1 mph N/A   Clear
1:32 AM 41.0 °F - 24.8 °F 53% 30.62 in 10.0 mi Calm Calm - N/A   Clear
1:52 AM 41.0 °F 35.2 °F 23.0 °F 49% 30.62 in 10.0 mi West 9.2 mph - N/A   Clear
2:12 AM 41.0 °F 35.2 °F 26.6 °F 57% 30.62 in 10.0 mi West 9.2 mph - N/A   Clear
2:32 AM 41.0 °F 31.9 °F 24.8 °F 53% 30.61 in 10.0 mi West 19.6 mph - N/A   Clear
2:52 AM 41.0 °F 31.6 °F 24.8 °F 53% 30.60 in 10.0 mi West 20.7 mph - N/A   Clear
3:12 AM 41.0 °F 32.2 °F 24.8 °F 53% 30.60 in 10.0 mi West 18.4 mph - N/A   Clear
3:32 AM 41.0 °F 32.5 °F 24.8 °F 53% 30.61 in 10.0 mi West 17.3 mph - N/A   Clear
3:52 AM 41.0 °F 32.2 °F 24.8 °F 53% 30.61 in 10.0 mi West 18.4 mph - N/A   Clear
4:12 AM 41.0 °F 33.1 °F 26.6 °F 57% 30.62 in 10.0 mi West 15.0 mph - N/A   Clear
4:32 AM 41.0 °F 34.3 °F 26.6 °F 57% 30.62 in 10.0 mi West 11.5 mph - N/A   Clear
4:52 AM 41.0 °F 35.8 °F 26.6 °F 57% 30.62 in 10.0 mi West 8.1 mph - N/A   Clear
5:12 AM 41.0 °F 33.5 °F 26.6 °F 57% 30.62 in 10.0 mi West 13.8 mph - N/A   Clear
5:32 AM 41.0 °F 37.1 °F 26.6 °F 57% 30.62 in 10.0 mi WSW 5.8 mph - N/A   Clear
5:52 AM 41.0 °F 34.7 °F 26.6 °F 57% 30.62 in 10.0 mi West 10.4 mph 17.3 mph N/A   Clear
6:12 AM 41.0 °F 37.1 °F 26.6 °F 57% 30.63 in 10.0 mi SSW 5.8 mph - N/A   Clear
6:32 AM 41.0 °F 33.5 °F 26.6 °F 57% 30.64 in 10.0 mi West 13.8 mph - N/A   Clear
6:52 AM 41.0 °F 33.9 °F 26.6 °F 57% 30.64 in 10.0 mi West 12.7 mph - N/A   Clear
7:12 AM 41.0 °F 34.3 °F 26.6 °F 57% 30.64 in 10.0 mi West 11.5 mph - N/A   Clear
7:32 AM 42.8 °F 40.1 °F 26.6 °F 53% 30.65 in 10.0 mi SSW 4.6 mph - N/A   Clear
7:52 AM 42.8 °F 40.1 °F 26.6 °F 53% 30.66 in 10.0 mi SSW 4.6 mph - N/A   Clear
8:12 AM 44.6 °F 38.8 °F 28.4 °F 53% 30.66 in 10.0 mi West 11.5 mph - N/A   Clear
8:32 AM 44.6 °F 41.4 °F 26.6 °F 49% 30.66 in 10.0 mi West 5.8 mph - N/A   Clear
8:52 AM 44.6 °F 40.2 °F 26.6 °F 49% 30.67 in 10.0 mi West 8.1 mph - N/A   Clear
9:12 AM 44.6 °F 42.2 °F 26.6 °F 49% 30.67 in 10.0 mi WSW 4.6 mph - N/A   Clear
9:32 AM 46.4 °F 45.2 °F 28.4 °F 50% 30.67 in 10.0 mi WSW 3.5 mph - N/A   Clear
9:52 AM 46.4 °F 42.9 °F 26.6 °F 46% 30.67 in 10.0 mi WSW 6.9 mph - N/A   Clear
10:12 AM 46.4 °F 41.1 °F 26.6 °F 46% 30.67 in 10.0 mi West 11.5 mph - N/A   Clear
10:32 AM 48.2 °F - 26.6 °F 43% 30.67 in 10.0 mi West 18.4 mph 23.0 mph N/A   Clear
10:52 AM 50.0 °F - 26.6 °F 40% 30.67 in 10.0 mi West 17.3 mph 21.9 mph N/A   Clear
11:12 AM 51.8 °F - 26.6 °F 38% 30.67 in 10.0 mi West 16.1 mph - N/A   Clear
11:32 AM 51.8 °F - 23.0 °F 33% 30.67 in 10.0 mi West 13.8 mph 18.4 mph N/A   Scattered Clouds
11:52 AM 53.6 °F - 23.0 °F 30% 30.67 in 10.0 mi West 15.0 mph 21.9 mph N/A   Clear
12:12 PM 53.6 °F - 23.0 °F 30% 30.66 in 10.0 mi West 9.2 mph 20.7 mph N/A   Clear
12:32 PM 53.6 °F - 23.0 °F 30% 30.66 in 10.0 mi WNW 13.8 mph 19.6 mph N/A   Clear
12:52 PM 53.6 °F - 23.0 °F 30% 30.65 in 10.0 mi West 17.3 mph 23.0 mph N/A   Scattered Clouds
1:12 PM 53.6 °F - 23.0 °F 30% 30.65 in 10.0 mi West 11.5 mph - N/A   Mostly Cloudy
1:32 PM 53.6 °F - 23.0 °F 30% 30.65 in 10.0 mi West 8.1 mph 21.9 mph N/A   Mostly Cloudy
2:32 PM 53.6 °F - 23.0 °F 30% 30.64 in 10.0 mi West 8.1 mph 21.9 mph N/A   Scattered Clouds
2:52 PM 53.6 °F - 23.0 °F 30% 30.64 in 10.0 mi West 10.4 mph 19.6 mph N/A   Clear
3:12 PM 53.6 °F - 21.2 °F 28% 30.63 in 10.0 mi West 11.5 mph 20.7 mph N/A   Clear
3:32 PM 53.6 °F - 23.0 °F 30% 30.62 in 10.0 mi WSW 10.4 mph 16.1 mph N/A   Clear
3:52 PM 55.4 °F - 21.2 °F 26% 30.62 in 10.0 mi West 18.4 mph - N/A   Scattered Clouds
4:12 PM 53.6 °F - 23.0 °F 30% 30.61 in 10.0 mi West 13.8 mph - N/A   Scattered Clouds
4:32 PM 53.6 °F - 23.0 °F 30% 30.61 in 10.0 mi SSW 11.5 mph - N/A   Scattered Clouds
4:52 PM 53.6 °F - 23.0 °F 30% 30.62 in 10.0 mi SSW 12.7 mph - N/A   Mostly Cloudy
5:32 PM 50.0 °F - 26.6 °F 40% 30.61 in 10.0 mi South 20.7 mph - N/A   Overcast
6:12 PM 46.4 °F 39.0 °F 30.2 °F 53% 30.60 in 10.0 mi South 19.6 mph - N/A   Light Drizzle
6:32 PM 44.6 °F 36.4 °F 30.2 °F 57% 30.60 in 10.0 mi South 20.7 mph - N/A   Overcast
6:52 PM 44.6 °F 36.6 °F 30.2 °F 57% 30.61 in 10.0 mi South 19.6 mph - N/A Rain Light Rain
7:12 PM 44.6 °F 36.1 °F 32.0 °F 61% 30.60 in 10.0 mi SSE 21.9 mph - N/A   Overcast
7:32 PM 44.6 °F 36.4 °F 32.0 °F 61% 30.60 in 10.0 mi South 20.7 mph - N/A   Overcast
7:52 PM 44.6 °F 36.6 °F 32.0 °F 61% 30.60 in 10.0 mi South 19.6 mph - N/A   Mostly Cloudy
8:12 PM 44.6 °F 36.6 °F 30.2 °F 57% 30.60 in 10.0 mi South 19.6 mph - N/A   Scattered Clouds
8:32 PM 44.6 °F 37.2 °F 30.2 °F 57% 30.60 in 10.0 mi South 17.3 mph - N/A   Clear
8:52 PM 46.4 °F 41.1 °F 28.4 °F 50% 30.59 in 10.0 mi SSW 11.5 mph 19.6 mph N/A   Scattered Clouds
9:12 PM 46.4 °F 40.7 °F 28.4 °F 50% 30.59 in 10.0 mi South 12.7 mph 16.1 mph N/A   Scattered Clouds
9:32 PM 46.4 °F 39.5 °F 28.4 °F 50% 30.60 in 10.0 mi South 17.3 mph - N/A   Clear
9:52 PM 44.6 °F 37.8 °F 28.4 °F 53% 30.60 in 10.0 mi South 15.0 mph - N/A   Clear
10:12 PM 46.4 °F 39.5 °F 28.4 °F 50% 30.60 in 10.0 mi South 17.3 mph - N/A   Clear
10:32 PM 46.4 °F 41.1 °F 26.6 °F 46% 30.59 in 10.0 mi SSW 11.5 mph 16.1 mph N/A   Clear
10:52 PM 46.4 °F 41.5 °F 26.6 °F 46% 30.59 in 10.0 mi SSW 10.4 mph 17.3 mph N/A   Clear
11:12 PM 46.4 °F 40.7 °F 26.6 °F 46% 30.58 in 10.0 mi SW 12.7 mph 16.1 mph N/A   Clear
11:32 PM 44.6 °F 38.8 °F 26.6 °F 49% 30.57 in 10.0 mi SW 11.5 mph - N/A   Clear
11:52 PM 46.4 °F 41.9 °F 28.4 °F 50% 30.57 in 10.0 mi SSW 9.2 mph 18.4 mph N/A   Clear